Weather in Bakhtyn

Ukraine / Vinnytsia Region     48°48′38″N   27°29′02″E
temp.,
°C
wind,
m/s
gust,
m/s
humid.,
%
clouds,
%
prec.,
mm/h
press.,
hPa
HPBL,
m
16 april, fri
fri1600:00+4nw5883100 0.0 1015484
03:00+3wnw5987100 0.0 1015496
06:00+3wnw5889100 0.0 1014498
09:00+3wnw6885100 0.0 1014696
12:00+5wnw7874100 0.1 1014972
15:00+6wnw81067100 0.1 10151190
18:00+6wnw7127496 0.1 10151231
21:00+5wnw71276100 0.1 10171012
17 april, sat
sat1700:00+4wnw51188100 0.0 1017837
03:00+3wnw51296100 0.0 1018619
06:00+3wsw41097100 0.1 1019727
09:00+4w4895100 0.3 1020746
12:00+4w4795100 0.1 1020559
15:00+6nnw358587 0.1 1020587
18:00+6nnw227788 0.0 1020495
21:00+4nne23875 0.0 102161
18 april, sun
sun1800:00+2nne34949 0.0 102065
03:00+2n2294100 0.0 102019
06:00+1nne1194100 0.0 102010
09:00+6nw227675 0.0 1019313
12:00+11w225717 0.0 1017925
15:00+14w224798 0.0 10161667
18:00+13n1149100 0.0 1016999
21:00+9ne5875100 0.0 1017267
19 april, mon
mon1900:00+8e3684100 0.0 1017282
03:00+8ene1384100 0.0 1016180
06:00+7ne2385100 0.0 1016159
09:00+8ene3476100 0.0 1015525
12:00+10e4467100 0.1 10141039
15:00+12e445992 0.2 10121265
18:00+12e4558100 0.2 10111306
21:00+8nne3774100 0.3 1010153
20 april, tue
tue2000:00+6nne51082100 0.0 1008254
03:00+5n4986100 0.0 1007208
06:00+4nnw51289100 0.0 1005317
09:00+7nnw81275100 0.0 1004909
12:00+9nw81158100 0.0 10041639
15:00+10nw71159100 0.1 10041791
18:00+11wnw7125672 0.0 10051632
21:00+7wnw511725 0.0 1007347